Hourly Weather Rudec Malyy

Today, 11 April, Sunday

Time Temperature Precipitation Wind Pressure Humidity
00:00 +7°C° 0 mm 4 mps 751 mmHg 71%
01:00 +7°C° 0 mm 3 mps 751 mmHg 74%
02:00 +7°C° 0 mm 3 mps 752 mmHg 77%
03:00 +5°C° 0 mm 3 mps 752 mmHg 78%
04:00 +5°C° 0 mm 3 mps 752 mmHg 79%
05:00 +5°C° 0 mm 3 mps 752 mmHg 81%
06:00 +7°C° 0 mm 3 mps 752 mmHg 77%
07:00 +7°C° 0 mm 4 mps 753 mmHg 73%
08:00 +8°C° 0 mm 4 mps 753 mmHg 70%
09:00 +10°C° 0 mm 5 mps 753 mmHg 63%
10:00 +12°C° 0 mm 5 mps 753 mmHg 57%
11:00 +14°C° 0 mm 6 mps 753 mmHg 50%
12:00 +15°C° 0 mm 6 mps 753 mmHg 47%
13:00 +16°C° 0 mm 6 mps 753 mmHg 43%
14:00 +16°C° 0 mm 7 mps 753 mmHg 40%
15:00 +16°C° 0 mm 6 mps 753 mmHg 41%
16:00 +16°C° 0 mm 6 mps 753 mmHg 42%
17:00 +16°C° 0 mm 6 mps 753 mmHg 44%
18:00 +14°C° 0 mm 5 mps 753 mmHg 48%
19:00 +12°C° 0 mm 5 mps 753 mmHg 52%
20:00 +11°C° 0 mm 4 mps 753 mmHg 56%
21:00 +9°C° 0 mm 5 mps 753 mmHg 56%
22:00 +9°C° 0 mm 5 mps 753 mmHg 56%
23:00 +8°C° 0 mm 5 mps 753 mmHg 56%

Tomorrow, 12 April, Monday

Time Temperature Precipitation Wind Pressure Humidity
00:00 +8°C° 0 mm 5 mps 753 mmHg 56%
01:00 +8°C° 0 mm 5 mps 753 mmHg 56%
02:00 +7°C° 0 mm 5 mps 753 mmHg 56%
03:00 +7°C° 0 mm 5 mps 753 mmHg 57%
04:00 +6°C° 0 mm 5 mps 753 mmHg 58%
05:00 +6°C° 0 mm 5 mps 753 mmHg 58%
06:00 +6°C° 0 mm 5 mps 753 mmHg 58%
07:00 +7°C° 0 mm 5 mps 753 mmHg 58%
08:00 +7°C° 0 mm 5 mps 752 mmHg 58%
09:00 +9°C° 0 mm 5 mps 752 mmHg 55%
10:00 +10°C° 0 mm 5 mps 752 mmHg 52%
11:00 +13°C° 0 mm 5 mps 752 mmHg 50%
12:00 +13°C° 0 mm 5 mps 752 mmHg 52%
13:00 +13°C° 0 mm 5 mps 751 mmHg 54%
14:00 +13°C° 0 mm 4 mps 751 mmHg 56%
15:00 +13°C° 0 mm 4 mps 751 mmHg 58%
16:00 +13°C° 0 mm 3 mps 750 mmHg 61%
17:00 +13°C° 0 mm 3 mps 750 mmHg 63%
18:00 +12°C° 0.1 mm 3 mps 750 mmHg 67%
19:00 +12°C° 0.1 mm 3 mps 750 mmHg 71%
20:00 +12°C° 0.1 mm 2 mps 751 mmHg 75%
21:00 +12°C° 0.1 mm 2 mps 750 mmHg 77%
22:00 +12°C° 0.1 mm 2 mps 750 mmHg 79%
23:00 +10°C° 0.1 mm 3 mps 750 mmHg 80%

Day after tomorrow, 13 April, Tuesday

Time Temperature Precipitation Wind Pressure Humidity
00:00 +10°C° 0 mm 2 mps 750 mmHg 82%
01:00 +10°C° 0 mm 2 mps 750 mmHg 85%
02:00 +10°C° 0 mm 2 mps 750 mmHg 87%
03:00 +9°C° 0 mm 2 mps 750 mmHg 88%
04:00 +8°C° 0 mm 2 mps 750 mmHg 90%
05:00 +9°C° 0 mm 1 mps 750 mmHg 91%
06:00 +9°C° 0 mm 2 mps 750 mmHg 89%
07:00 +9°C° 0 mm 2 mps 750 mmHg 87%
08:00 +10°C° 0 mm 2 mps 751 mmHg 85%
09:00 +10°C° 0 mm 2 mps 751 mmHg 83%
10:00 +12°C° 0 mm 2 mps 751 mmHg 81%
11:00 +11°C° 0 mm 3 mps 751 mmHg 79%
12:00 +11°C° 0 mm 3 mps 751 mmHg 78%
13:00 +11°C° 0 mm 4 mps 751 mmHg 78%
14:00 +9°C° 0 mm 5 mps 751 mmHg 77%
15:00 +9°C° 0 mm 5 mps 751 mmHg 78%
16:00 +8°C° 0 mm 6 mps 750 mmHg 79%
17:00 +8°C° 0 mm 6 mps 750 mmHg 79%
18:00 +7°C° 0 mm 6 mps 750 mmHg 81%
19:00 +5°C° 0 mm 6 mps 750 mmHg 84%
20:00 +5°C° 0 mm 6 mps 750 mmHg 86%
21:00 +4°C° 0 mm 6 mps 750 mmHg 86%
22:00 +4°C° 0 mm 6 mps 750 mmHg 86%
23:00 +4°C° 0 mm 6 mps 749 mmHg 87%

14 April, Wednesday

Time Temperature Precipitation Wind Pressure Humidity
00:00 +4°C° 0 mm 6 mps 749 mmHg 87%
01:00 +4°C° 0 mm 6 mps 749 mmHg 88%
02:00 +4°C° 0 mm 6 mps 749 mmHg 88%
03:00 +5°C° 0 mm 5 mps 748 mmHg 88%
04:00 +5°C° 0 mm 5 mps 748 mmHg 88%
05:00 +5°C° 0 mm 5 mps 748 mmHg 88%
06:00 +5°C° 0 mm 5 mps 748 mmHg 87%
07:00 +5°C° 0 mm 5 mps 748 mmHg 86%
08:00 +5°C° 0 mm 6 mps 748 mmHg 85%
09:00 +6°C° 0 mm 5 mps 748 mmHg 84%
10:00 +7°C° 0 mm 5 mps 748 mmHg 82%
11:00 +8°C° 0 mm 5 mps 747 mmHg 81%
12:00 +7°C° 0.4 mm 5 mps 747 mmHg 84%
13:00 +7°C° 0.4 mm 5 mps 747 mmHg 87%
14:00 +6°C° 0.4 mm 5 mps 747 mmHg 89%
15:00 +6°C° 0.6 mm 5 mps 747 mmHg 90%
16:00 +6°C° 0.6 mm 5 mps 747 mmHg 92%
17:00 +5°C° 0.6 mm 5 mps 746 mmHg 93%
18:00 +5°C° 0.2 mm 5 mps 746 mmHg 94%
19:00 +5°C° 0.2 mm 4 mps 747 mmHg 94%
20:00 +5°C° 0.2 mm 4 mps 747 mmHg 95%
21:00 +6°C° 0.2 mm 4 mps 747 mmHg 96%
22:00 +7°C° 0.2 mm 3 mps 747 mmHg 97%
23:00 +7°C° 0.2 mm 3 mps 746 mmHg 98%

15 April, Thursday

Time Temperature Precipitation Wind Pressure Humidity
00:00 +7°C° 0.3 mm 3 mps 746 mmHg 97%
01:00 +6°C° 0.3 mm 4 mps 746 mmHg 97%
02:00 +6°C° 0.3 mm 4 mps 746 mmHg 97%
03:00 +6°C° 0.2 mm 4 mps 747 mmHg 97%
04:00 +7°C° 0.2 mm 3 mps 747 mmHg 97%
05:00 +7°C° 0.2 mm 3 mps 747 mmHg 97%
06:00 +8°C° 0.3 mm 3 mps 747 mmHg 96%
07:00 +8°C° 0.3 mm 3 mps 747 mmHg 95%
08:00 +8°C° 0.3 mm 3 mps 748 mmHg 94%
09:00 +10°C° 0.1 mm 3 mps 748 mmHg 87%
10:00 +11°C° 0.1 mm 4 mps 748 mmHg 79%
11:00 +12°C° 0.1 mm 4 mps 748 mmHg 71%
12:00 +12°C° 0.3 mm 4 mps 748 mmHg 72%
13:00 +12°C° 0.3 mm 4 mps 749 mmHg 73%
14:00 +12°C° 0.3 mm 5 mps 749 mmHg 73%
15:00 +10°C° 0.1 mm 5 mps 749 mmHg 76%
16:00 +9°C° 0.1 mm 6 mps 749 mmHg 79%
17:00 +9°C° 0.1 mm 6 mps 749 mmHg 82%
18:00 +8°C° 0 mm 6 mps 749 mmHg 84%
19:00 +5°C° 0 mm 6 mps 750 mmHg 85%
20:00 +4°C° 0 mm 6 mps 750 mmHg 87%
21:00 +4°C° 0 mm 6 mps 750 mmHg 87%
22:00 +3°C° 0 mm 6 mps 750 mmHg 87%
23:00 +3°C° 0 mm 5 mps 750 mmHg 86%

16 April, Friday

Time Temperature Precipitation Wind Pressure Humidity
00:00 +3°C° 0.1 mm 5 mps 750 mmHg 87%
01:00 +3°C° 0.1 mm 5 mps 750 mmHg 88%
02:00 +3°C° 0.1 mm 5 mps 750 mmHg 89%
03:00 +3°C° 0.1 mm 5 mps 750 mmHg 89%
04:00 +3°C° 0.1 mm 5 mps 750 mmHg 90%
05:00 +3°C° 0.1 mm 5 mps 750 mmHg 91%
06:00 +3°C° 0.1 mm 5 mps 751 mmHg 90%
07:00 +3°C° 0.1 mm 6 mps 751 mmHg 89%
08:00 +3°C° 0.1 mm 6 mps 752 mmHg 87%
09:00 +3°C° 0 mm 6 mps 752 mmHg 85%
10:00 +4°C° 0 mm 6 mps 753 mmHg 83%
11:00 +4°C° 0 mm 6 mps 753 mmHg 80%
12:00 +4°C° 0 mm 6 mps 754 mmHg 78%
13:00 +4°C° 0 mm 6 mps 754 mmHg 76%
14:00 +4°C° 0 mm 6 mps 754 mmHg 74%
15:00 +5°C° 0 mm 5 mps 755 mmHg 72%
16:00 +5°C° 0 mm 4 mps 755 mmHg 70%
17:00 +6°C° 0 mm 4 mps 755 mmHg 69%
18:00 +5°C° 0 mm 4 mps 756 mmHg 69%
19:00 +5°C° 0 mm 3 mps 756 mmHg 69%
20:00 +5°C° 0 mm 3 mps 756 mmHg 69%
21:00 +4°C° 0 mm 3 mps 757 mmHg 72%
22:00 +3°C° 0 mm 3 mps 757 mmHg 74%
23:00 +2°C° 0 mm 3 mps 758 mmHg 76%
Show more